Total_Precipitation_Accumulation
0.00 0.00 0.00 0.00 0.00 0.04 0.09 0.22 0.32 0.26 0.14 0.14 0.08 0.16 0.27 0.19 0.16 0.19 0.17 0.13 0.13 0.10 0.05 0.04 0.04 0.02 0.00 0.01 0.05 0.01 0.01 0.04 0.05 0.05 0.05 0.01 0.01 0.02 0.05 0.04 0.02 0.06 0.17
0.09 0.15 0.16 0.12 0.08 0.02 0.06 0.10 0.22 0.34 0.28 0.16 0.23 0.28 0.29 0.28 0.30 0.20 0.32 0.29 0.24 0.20 0.14 0.16 0.15 0.04 0.11 0.07 0.12 0.07 0.03 0.04 0.05 0.07 0.06 0.02 0.03 0.08 0.12 0.14 0.04 0.09 0.15
0.16 0.20 0.28 0.22 0.20 0.26 0.20 0.11 0.15 0.22 0.14 0.14 0.29 0.32 0.32 0.31 0.30 0.48 0.61 0.38 0.31 0.26 0.19 0.19 0.13 0.13 0.24 0.23 0.25 0.25 0.07 0.14 0.24 0.16 0.05 0.05 0.19 0.35 0.55 0.39 0.18 0.25 0.31
0.26 0.12 0.26 0.30 0.20 0.15 0.24 0.22 0.26 0.29 0.29 0.15 0.20 0.20 0.19 0.14 0.18 0.38 0.46 0.51 0.39 0.21 0.51 0.36 0.35 0.48 0.52 0.40 0.34 0.39 0.32 0.29 0.28 0.19 0.22 0.13 0.13 0.31 0.55 0.19 0.21 0.42 0.46
0.49 0.38 0.35 0.34 0.36 0.30 0.31 0.37 0.31 0.28 0.30 0.24 0.22 0.29 0.32 0.19 0.13 0.12 0.14 0.13 0.18 0.24 0.27 0.49 0.48 0.61 0.63 0.44 0.40 0.39 0.38 0.34 0.26 0.24 0.30 0.25 0.24 0.26 0.24 0.11 0.11 0.21 0.33
1.35 0.87 0.81 0.71 0.57 0.36 0.31 0.36 0.34 0.31 0.33 0.26 0.16 0.22 0.31 0.24 0.11 0.11 0.10 0.05 0.05 0.09 0.11 0.17 0.35 0.35 0.19 0.11 0.06 0.08 0.20 0.41 0.44 0.35 0.35 0.32 0.32 0.32 0.22 0.14 0.15 0.28 0.36
2.34 1.41 0.85 0.79 0.56 0.46 0.36 0.47 0.50 0.50 0.49 0.45 0.44 0.46 0.27 0.17 0.22 0.13 0.07 0.02 0.04 0.20 0.28 0.42 0.46 0.36 0.38 0.18 0.06 0.01 0.06 0.12 0.11 0.14 0.21 0.22 0.20 0.19 0.04 0.07 0.16 0.23 0.34
2.41 2.20 1.19 0.93 0.87 0.80 0.62 0.49 0.45 0.44 0.53 0.59 0.42 0.30 0.27 0.19 0.20 0.08 0.04 0.01 0.02 0.19 0.28 0.27 0.32 0.31 0.32 0.16 0.12 0.06 0.01 0.03 0.03 0.01 0.00 0.05 0.00 0.00 0.00 0.01 0.02 0.07 0.14
1.79 2.80 2.41 1.13 0.92 0.89 0.81 0.87 0.81 0.67 0.58 0.44 0.30 0.23 0.17 0.12 0.14 0.06 0.04 0.04 0.06 0.11 0.08 0.07 0.07 0.07 0.05 0.01 0.00 0.00 0.01 0.00 0.00 0.01 0.00 0.00 0.00 0.00 0.00 0.00 0.01 0.06 0.20
2.08 1.65 2.58 2.66 1.58 1.20 1.40 1.50 1.35 1.16 0.86 0.61 0.53 0.37 0.26 0.16 0.17 0.12 0.08 0.02 0.07 0.11 0.08 0.05 0.10 0.05 0.04 0.01 0.01 0.05 0.16 0.12 0.11 0.05 0.01 0.00 0.00 0.00 0.00 0.00 0.00 0.00 0.01
2.04 2.15 1.80 1.98 2.18 1.75 1.95 1.94 1.72 1.55 1.49 1.24 1.09 0.82 0.63 0.47 0.39 0.36 0.19 0.09 0.12 0.19 0.21 0.08 0.02 0.02 0.01 0.00 0.00 0.01 0.04 0.06 0.07 0.04 0.02 0.01 0.00 0.00 0.01 0.00 0.00 0.00 0.00
2.84 2.54 3.10 2.70 2.24 1.91 1.82 2.19 2.02 1.79 1.63 1.31 1.25 1.16 0.97 0.86 0.77 0.59 0.42 0.13 0.07 0.07 0.07 0.05 0.04 0.01 0.00 0.00 0.00 0.01 0.01 0.01 0.01 0.00 0.00 0.01 0.02 0.02 0.02 0.00 0.00 0.00 0.00
1.33 1.72 2.54 3.56 2.59 1.84 1.38 1.14 1.01 0.89 0.70 0.53 0.54 0.64 0.66 0.62 0.58 0.41 0.20 0.10 0.07 0.08 0.06 0.04 0.02 0.02 0.01 0.01 0.01 0.01 0.01 0.01 0.01 0.01 0.01 0.01 0.01 0.01 0.01 0.01 0.00 0.00 0.00
1.47 1.46 1.49 1.38 0.89 0.56 0.39 0.36 0.47 0.49 0.56 0.58 0.40 0.30 0.30 0.25 0.20 0.14 0.11 0.04 0.01 0.00 0.00 0.00 0.00 0.00 0.00 0.00 0.00 0.00 0.00 0.00 0.00 0.00 0.00 0.00 0.00 0.00 0.00 0.00 0.00 0.00 0.00
0.50 0.32 0.21 0.20 0.29 0.26 0.18 0.15 0.16 0.18 0.23 0.40 0.52 0.28 0.17 0.10 0.04 0.02 0.01 0.00 0.00 0.00 0.00 0.00 0.00 0.00 0.00 0.00 0.00 0.00 0.00 0.00 0.00 0.00 0.00 0.00 0.00 0.00 0.00 0.00 0.00 0.00 0.00
0.14 0.07 0.09 0.12 0.08 0.08 0.03 0.01 0.01 0.04 0.04 0.03 0.04 0.05 0.03 0.02 0.00 0.00 0.00 0.00 0.00 0.00 0.00 0.00 0.00 0.00 0.00 0.00 0.00 0.00 0.00 0.00 0.00 0.00 0.00 0.00 0.00 0.00 0.00 0.00 0.00 0.00 0.00
0.00 0.00 0.01 0.01 0.00 0.00 0.00 0.00 0.00 0.00 0.00 0.00 0.00 0.00 0.00 0.00 0.00 0.00 0.00 0.00 0.00 0.00 0.00 0.00 0.00 0.00 0.00 0.00 0.00 0.00 0.00 0.00 0.00 0.00 0.00 0.00 0.00 0.00 0.00 0.00 0.00 0.00 0.00
0.00 0.00 0.00 0.00 0.00 0.00 0.00 0.00 0.00 0.00 0.00 0.00 0.00 0.00 0.00 0.00 0.00 0.00 0.00 0.00 0.00 0.00 0.00 0.00 0.00 0.00 0.00 0.00 0.00 0.00 0.00 0.00 0.00 0.00 0.00 0.00 0.00 0.00 0.00 0.00 0.00 0.00 0.00
0.00 0.00 0.00 0.00 0.00 0.00 0.00 0.00 0.00 0.00 0.00 0.00 0.00 0.00 0.00 0.00 0.00 0.00 0.00 0.00 0.00 0.00 0.00 0.00 0.00 0.00 0.00 0.00 0.00 0.00 0.00 0.00 0.00 0.00 0.00 0.00 0.00 0.00 0.00 0.00 0.00 0.00 0.00
0.00 0.00 0.00 0.00 0.00 0.00 0.00 0.00 0.00 0.00 0.00 0.00 0.00 0.00 0.00 0.00 0.00 0.00 0.00 0.00 0.00 0.00 0.00 0.00 0.00 0.00 0.00 0.00 0.00 0.00 0.00 0.00 0.00 0.00 0.00 0.00 0.00 0.00 0.00 0.00 0.00 0.00 0.00
0.01 0.00 0.00 0.00 0.00 0.00 0.00 0.00 0.00 0.00 0.00 0.00 0.00 0.00 0.00 0.00 0.00 0.00 0.00 0.00 0.00 0.00 0.00 0.00 0.00 0.00 0.00 0.00 0.00 0.00 0.00 0.00 0.00 0.00 0.00 0.00 0.00 0.00 0.00 0.00 0.00 0.00 0.00
0.00 0.00 0.01 0.00 0.00 0.00 0.00 0.00 0.00 0.00 0.00 0.00 0.00 0.00 0.00 0.00 0.00 0.00 0.00 0.00 0.00 0.00 0.00 0.00 0.00 0.00 0.00 0.00 0.00 0.00 0.01 0.02 0.02 0.04 0.03 0.02 0.01 0.00 0.00 0.00 0.00 0.00 0.00
0.00 0.00 0.00 0.00 0.00 0.00 0.00 0.00 0.00 0.00 0.00 0.00 0.00 0.00 0.00 0.00 0.00 0.00 0.00 0.00 0.00 0.00 0.00 0.00 0.00 0.00 0.00 0.00 0.01 0.01 0.02 0.02 0.05 0.05 0.03 0.00 0.00 0.00 0.00 0.00 0.00 0.00 0.00
0.00 0.00 0.00 0.00 0.00 0.00 0.00 0.00 0.00 0.00 0.00 0.00 0.00 0.00 0.00 0.00 0.00 0.00 0.00 0.00 0.00 0.00 0.00 0.00 0.00 0.00 0.00 0.00 0.02 0.03 0.03 0.02 0.04 0.03 0.02 0.01 0.00 0.00 0.00 0.00 0.00 0.00 0.00
0.00 0.00 0.00 0.00 0.00 0.00 0.00 0.00 0.01 0.01 0.01 0.01 0.01 0.01 0.01 0.01 0.01 0.01 0.01 0.00 0.00 0.00 0.00 0.00 0.00 0.01 0.01 0.06 0.07 0.04 0.01 0.00 0.00 0.00 0.00 0.00 0.00 0.00 0.00 0.00 0.01 0.00 0.00
0.00 0.00 0.00 0.00 0.00 0.00 0.01 0.03 0.04 0.03 0.03 0.02 0.02 0.02 0.02 0.02 0.02 0.01 0.01 0.00 0.00 0.00 0.00 0.01 0.00 0.01 0.02 0.03 0.05 0.06 0.04 0.01 0.00 0.00 0.00 0.00 0.01 0.01 0.01 0.01 0.00 0.00 0.00